Weather History for Florence, SC

Change the Weather History Date:

Friday, August 16, 2013

  Actual Average Record
Temperature  
Mean Temperature 68 °F 80 °F  
Max Temperature 69 °F 90 °F 103 °F (1954)
Min Temperature 66 °F 71 °F 60 °F (1967)
Degree Days  
Heating Degree Days 0 0  
Month to date heating degree days 0 0  
Since 1 June heating degree days 0 1  
Since 1 July heating degree days 0 0  
Cooling Degree Days 3 15  
Month to date cooling degree days 241 250  
Year to date cooling degree days 1426 1456  
Since 1 June cooling degree days 1159 1149  
Growing Degree Days 17 (Base 50)    
Moisture  
Dew Point 64 °F    
Average Humidity 90    
Maximum Humidity 93    
Minimum Humidity 87    
Precipitation  
Precipitation 0.68 in 0.17 in 2.40 in (1997)
Month to date precipitation 1.45 2.78  
Year to date precipitation 43.47 28.02  
Sea Level Pressure  
Sea Level Pressure 30.10 in    
Wind  
Wind Speed 7 mph (NE)    
Max Wind Speed 16 mph    
Max Gust Speed 21 mph    
Visibility 8 miles    
Events Rain    
T = Trace of Precipitation, MM = Missing Value Source: NWS Daily Summary

Daily Weather History Graph

Daily Weather History Graph

Search for Another Location

Airport:

Trip Planner

Search our weather history database for the weather conditions in past years. The results will help you decide how hot, cold, wet, or windy it might be!

Date:

Astronomy

Aug. 16, 2013 Rise Set
Actual Time 6:41 AM EDT 8:04 PM EDT
Civil Twilight 6:14 AM EDT 8:30 PM EDT
Nautical Twilight 5:43 AM EDT 9:02 PM EDT
Astronomical Twilight 5:09 AM EDT 9:35 PM EDT
Moon 4:16 PM EDT (8/16) 1:47 AM EDT (8/16)
Length of Visible Light 14h 16m
Length of Day
13h 23m
Waxing Gibbous, 74% of the Moon is Illuminated
Aug 16
Waxing Gibbous
Aug 20
Full
Aug 28
Last Quarter
Sep 5
New
Sep 12
First Quarter

Hourly Weather History & Observations

Time (EDT) Temp. Dew Point Humidity Pressure Visibility Wind Dir Wind Speed Gust Speed Precip Events Conditions
1:53 AM 66.9 °F 63.0 °F 87% 30.07 in 10.0 mi East 3.5 mph - N/A   Overcast
2:53 AM 66.9 °F 63.0 °F 87% 30.06 in 10.0 mi East 3.5 mph - N/A   Overcast
3:53 AM 68.0 °F 64.0 °F 87% 30.06 in 10.0 mi Calm Calm - N/A   Overcast
4:53 AM 68.0 °F 64.0 °F 87% 30.06 in 10.0 mi NE 4.6 mph - N/A   Overcast
5:53 AM 66.9 °F 64.0 °F 90% 30.06 in 10.0 mi NNE 4.6 mph - N/A   Overcast
6:53 AM 68.0 °F 64.0 °F 87% 30.08 in 10.0 mi NNE 4.6 mph - N/A   Mostly Cloudy
7:53 AM 68.0 °F 64.0 °F 87% 30.09 in 10.0 mi NE 5.8 mph - N/A   Overcast
8:00 AM 68.0 °F 64.4 °F 88% 30.10 in 10.0 mi NNE 6.9 mph - N/A   Overcast
8:30 AM 68.0 °F 64.4 °F 88% 30.11 in 3.0 mi North 4.6 mph - 0.01 in Rain Light Rain
8:40 AM 66.2 °F 64.4 °F 94% 30.11 in 2.0 mi NNE 5.8 mph - 0.02 in Rain Light Rain
8:46 AM 66.2 °F 64.4 °F 94% 30.11 in 3.0 mi NNE 3.5 mph - 0.02 in Rain Light Rain
8:53 AM 66.9 °F 64.0 °F 90% 30.11 in 4.0 mi NNE 4.6 mph - 0.03 in Rain Light Rain
9:04 AM 66.2 °F 64.4 °F 94% 30.12 in 2.0 mi NNE 5.8 mph - 0.00 in Rain Light Rain
9:53 AM 68.0 °F 64.9 °F 90% 30.12 in 3.0 mi North 9.2 mph - 0.07 in Rain Light Rain
10:53 AM 66.9 °F 64.9 °F 93% 30.12 in 7.0 mi NNE 10.4 mph - 0.02 in Rain Light Rain
11:40 AM 68.0 °F 64.4 °F 88% 30.13 in 10.0 mi NE 9.2 mph - 0.01 in   Mostly Cloudy
11:53 AM 66.9 °F 64.9 °F 93% 30.11 in 6.0 mi NE 9.2 mph 17.3 mph 0.03 in Rain Rain
12:25 PM 66.2 °F 64.4 °F 94% 30.12 in 10.0 mi NE 9.2 mph - 0.04 in Rain Light Rain
12:53 PM 66.9 °F 64.0 °F 90% 30.10 in 5.0 mi NE 12.7 mph - 0.07 in Rain Rain
1:53 PM 66.0 °F 64.0 °F 93% 30.10 in 3.0 mi NE 10.4 mph - 0.18 in Rain Heavy Rain
2:53 PM 66.0 °F 64.0 °F 93% 30.10 in 2.5 mi NNE 8.1 mph - 0.17 in Rain Rain
2:56 PM 66.2 °F 64.4 °F 94% 30.10 in 3.0 mi NNE 10.4 mph - 0.01 in Rain Rain
3:04 PM 66.2 °F 64.4 °F 94% 30.10 in 3.0 mi NNE 9.2 mph - 0.02 in Rain Rain
3:21 PM 66.2 °F 64.4 °F 94% 30.10 in 10.0 mi North 12.7 mph - 0.02 in Rain Light Rain
3:36 PM 66.2 °F 62.6 °F 88% 30.10 in 4.0 mi NNE 11.5 mph 20.7 mph 0.04 in Rain Rain
3:53 PM 66.0 °F 63.0 °F 90% 30.09 in 5.0 mi NNE 9.2 mph - 0.06 in Rain Light Rain
4:03 PM 66.2 °F 64.4 °F 94% 30.08 in 3.0 mi NE 11.5 mph - 0.02 in Rain Rain
4:53 PM 66.9 °F 64.0 °F 90% 30.09 in 3.0 mi ENE 6.9 mph - 0.05 in   Overcast
5:07 PM 66.2 °F 64.4 °F 94% 30.08 in 10.0 mi ENE 9.2 mph - 0.00 in Rain Light Rain
5:53 PM 68.0 °F 64.9 °F 90% 30.09 in 10.0 mi NE 6.9 mph - 0.00 in   Overcast
6:06 PM 68.0 °F 64.4 °F 88% 30.09 in 10.0 mi NNE 6.9 mph - N/A   Overcast
6:53 PM 66.9 °F 64.0 °F 90% 30.09 in 10.0 mi NE 10.4 mph - N/A   Overcast
7:19 PM 66.2 °F 64.4 °F 94% 30.09 in 10.0 mi NNE 9.2 mph - N/A   Overcast
7:28 PM 66.2 °F 64.4 °F 94% 30.10 in 10.0 mi NNE 8.1 mph 16.1 mph N/A   Overcast
7:53 PM 66.9 °F 64.9 °F 93% 30.10 in 10.0 mi NNE 6.9 mph - N/A   Overcast
8:43 PM 66.2 °F 64.4 °F 94% 30.11 in 10.0 mi NE 8.1 mph - N/A   Overcast
8:53 PM 66.9 °F 64.0 °F 90% 30.11 in 10.0 mi NNE 10.4 mph - N/A   Overcast
9:51 PM 66.2 °F 64.4 °F 94% 30.14 in 10.0 mi NNE 8.1 mph - N/A   Overcast
9:53 PM 66.9 °F 64.0 °F 90% 30.13 in 10.0 mi NNE 8.1 mph - N/A   Overcast
10:33 PM 66.2 °F 64.4 °F 94% 30.14 in 10.0 mi NNE 6.9 mph - N/A   Overcast
10:53 PM 66.9 °F 64.0 °F 90% 30.13 in 10.0 mi NE 8.1 mph - N/A   Overcast
11:30 PM 66.2 °F 64.4 °F 94% 30.12 in 10.0 mi NE 10.4 mph - N/A   Overcast
11:53 PM 66.9 °F 64.0 °F 90% 30.12 in 10.0 mi NE 8.1 mph - N/A   Overcast